This is the latest recevied weather packets stored in our database for station/object OE6PLD-13. If no packets are shown the sender has not sent any weather packets the latest 10 day(s).
| Time | Temp. | Humidity | Pressure | Rain* | Wind** | Luminosity | Snow |
|---|---|---|---|---|---|---|---|
| 1777786771 | 10.56° C | 75% | 1010.5 hPa | 0.76 mm | - | 183 W/m² | - |
| 1777786588 | 10.56° C | 75% | 1010.6 hPa | 0.76 mm | - | 179 W/m² | - |
| 1777786405 | 10° C | 76% | 1010.5 hPa | 0.76 mm | - | 185 W/m² | - |
| 1777786221 | 10° C | 77% | 1010.5 hPa | 0.76 mm | - | 172 W/m² | - |
| 1777786038 | 9.44° C | 78% | 1010.4 hPa | 0.76 mm | - | 155 W/m² | - |
| 1777785855 | 9.44° C | 78% | 1010.4 hPa | 0.76 mm | - | 135 W/m² | - |
| 1777785671 | 8.89° C | 79% | 1010.3 hPa | 0.76 mm | - | 128 W/m² | - |
| 1777785488 | 8.89° C | 79% | 1010.6 hPa | 0.76 mm | - | 116 W/m² | - |
| 1777785305 | 8.89° C | 80% | 1010.3 hPa | 0.76 mm | - | 114 W/m² | - |
| 1777785121 | 8.89° C | 81% | 1010.3 hPa | 0.76 mm | - | 114 W/m² | - |
| 1777784938 | 7.78° C | 83% | 1010.4 hPa | 0.76 mm | - | 117 W/m² | - |
| 1777784755 | 7.78° C | 84% | 1010.4 hPa | 0.76 mm | - | 116 W/m² | - |
| 1777784571 | 7.22° C | 84% | 1010.5 hPa | 0.76 mm | - | 106 W/m² | - |
| 1777784388 | 7.22° C | 84% | 1010.6 hPa | 0.76 mm | - | 97 W/m² | - |
| 1777784205 | 7.22° C | 84% | 1010.2 hPa | 0.76 mm | - | 90 W/m² | - |
| 1777784021 | 6.67° C | 85% | 1010.5 hPa | 0.76 mm | - | 83 W/m² | - |
| 1777783838 | 6.67° C | 87% | 1010.4 hPa | 0.76 mm | - | 83 W/m² | - |
| 1777783654 | 6.67° C | 88% | 1010.6 hPa | 0.76 mm | - | 79 W/m² | - |
| 1777783471 | 6.11° C | 89% | 1010.5 hPa | 0.76 mm | - | 68 W/m² | - |
| 1777783288 | 6.11° C | 90% | 1010.2 hPa | 0.76 mm | - | 62 W/m² | - |
| 1777783105 | 5.56° C | 90% | 1010.4 hPa | 0.76 mm | - | 56 W/m² | - |
| 1777782921 | 5° C | 90% | 1010.4 hPa | 0.76 mm | - | 39 W/m² | - |
| 1777782738 | 5° C | 91% | 1010.3 hPa | 0.76 mm | - | 26 W/m² | - |
| 1777782554 | 5° C | 91% | 1010.2 hPa | 0.76 mm | - | 27 W/m² | - |
| 1777782371 | 5° C | 91% | 1010.3 hPa | 0.76 mm | - | 19 W/m² | - |
* Rain latest hour (hover to see other rain measurements)
** Current wind speed in m/s (hover to see current wind gust speed)